Seretse Khama, Botswana

2:14 AM CAT on June 24, 2017 (GMT +0200)
Seretse Khama

Weather History for FBSK - September, 2013

Change the Weather History Date:

Sunday, September 1, 2013

  Actual Average Record
Temperature  
Mean Temperature 50 °F -  
Max Temperature 69 °F 81 °F 89 °F (2000)
Min Temperature 32 °F 52 °F 32 °F (2013)
Degree Days  
Heating Degree Days 14    
Moisture  
Dew Point 7 °F    
Average Humidity 19    
Maximum Humidity 41    
Minimum Humidity 7    
Precipitation  
Precipitation 0.00 in - - ()
Sea Level Pressure  
Sea Level Pressure 30.17 in    
Wind  
Wind Speed 4 mph ()    
Max Wind Speed 9 mph    
Max Gust Speed -    
Averages and records for this station are not official NWS values.
T = Trace of Precipitation, MM = Missing Value Source: Averaged Metar Reports

Daily Weather History Graph

Daily Weather History Graph

Search for Another Location

Airport or City:

Trip Planner

Search our weather history database for the weather conditions in past years. The results will help you decide how hot, cold, wet, or windy it might be!

Date:

Astronomy

Sep. 01, 2013 Rise Set
Actual Time 6:27 AM CAT 6:05 PM CAT
Civil Twilight 6:04 AM CAT 6:28 PM CAT
Nautical Twilight 5:38 AM CAT 6:54 PM CAT
Astronomical Twilight 5:12 AM CAT 7:20 PM CAT
Moon 3:26 AM CAT (9/1) 2:42 PM CAT (9/1)
Length of Visible Light 12h 23m
Length of Day
11h 37m
Waning Crescent, 15% of the Moon is Illuminated
Sep 1
Waning Crescent
Sep 5
New
Sep 12
First Quarter
Sep 19
Full
Sep 27
Last Quarter

Hourly Weather History & Observations

Time (CAT) Temp. Windchill Dew Point Humidity Pressure Visibility Wind Dir Wind Speed Gust Speed Precip Events Conditions
12:00 AM 41.0 °F 35.2 °F 8.6 °F 26% 30.15 in - WNW 9.2 mph - N/A   Clear
1:00 AM 39.2 °F 35.9 °F 8.6 °F 28% 30.15 in - WSW 4.6 mph - N/A   Clear
2:00 AM 37.4 °F - 8.6 °F 30% 30.12 in - Variable 1.2 mph - N/A   Clear
3:00 AM 35.6 °F 32.8 °F 6.8 °F 30% 30.12 in - West 3.5 mph - N/A   Clear
4:00 AM 33.8 °F 30.8 °F 8.6 °F 35% 30.12 in - West 3.5 mph - N/A   Clear
5:00 AM 32.0 °F - 10.4 °F 41% 30.15 in - West 2.3 mph - N/A   Clear
6:00 AM 32.0 °F 27.5 °F 6.8 °F 35% 30.15 in - WSW 4.6 mph - N/A   Clear
7:00 AM 33.8 °F 29.6 °F 6.8 °F 32% 30.18 in - West 4.6 mph - N/A   Clear
8:00 AM 44.6 °F - 8.6 °F 23% 30.21 in - Variable 2.3 mph - N/A   Clear
9:00 AM 51.8 °F - 10.4 °F 19% 30.24 in - Variable 2.3 mph - N/A   Clear
11:00 AM 59.0 °F - 8.6 °F 14% 30.24 in - Variable 4.6 mph - N/A   Clear
12:00 PM 64.4 °F - 10.4 °F 12% 30.21 in - SSW 5.8 mph - N/A   Clear
1:00 PM 66.2 °F - 6.8 °F 10% 30.18 in - NW 5.8 mph - N/A   Clear
2:00 PM 66.2 °F - 6.8 °F 10% 30.15 in - WSW 5.8 mph - N/A   Clear
3:00 PM 69.8 °F - 5.0 °F 8% 30.15 in - Variable 4.6 mph - N/A   Clear
4:00 PM 69.8 °F - 3.2 °F 7% 30.12 in - West 8.1 mph - N/A   Clear
5:00 PM 69.8 °F - 3.2 °F 7% 30.12 in - West 5.8 mph - N/A   Clear
6:00 PM 68.0 °F - 6.8 °F 9% 30.15 in - SE 5.8 mph - N/A   Clear
7:00 PM 62.6 °F - 5.0 °F 10% 30.15 in - SE 5.8 mph - N/A   Clear
8:00 PM 59.0 °F - 5.0 °F 12% 30.18 in - South 6.9 mph - N/A   Clear
9:00 PM 57.2 °F - 3.2 °F 11% 30.21 in - SSE 4.6 mph - N/A   Clear
10:00 PM 53.6 °F - 3.2 °F 13% 30.21 in - South 5.8 mph - N/A   Clear
11:00 PM 55.4 °F - 5.0 °F 13% 30.21 in - South 8.1 mph - N/A   Clear